Location: Goettingen
(51.5300°N, 9.9433°E)
Time: 21:43:15
(UTC+02:00)

Envisat - Visible Passes

Search period start: 21 September 2021 00:00
Search period end: 01 October 2021 00:00
Orbit: 764 x 766 km, 98.2° (Epoch: 21 September)

Date Brightness Start Highest point End Pass type
(mag) Time Alt. Az. Time Alt. Az. Time Alt. Az.
21 Sep 6.0 05:08:21 10° NE 05:11:03 14° E 05:13:43 10° ESE visible
22 Sep 4.3 06:09:01 10° NNE 06:13:53 44° E 06:18:43 10° S visible
23 Sep 5.5 05:32:44 10° NE 05:36:43 23° E 05:40:42 10° SE visible
24 Sep 6.2 04:57:45 10° ENE 04:59:21 11° E 05:00:56 10° ESE visible
24 Sep 3.4 06:34:13 10° NNE 06:39:19 71° ESE 06:44:23 10° S visible
25 Sep 4.7 05:57:36 10° NNE 06:02:18 36° E 06:06:57 10° SSE visible
26 Sep 5.8 05:21:32 10° NE 05:25:04 19° E 05:28:36 10° SE visible
27 Sep 3.8 06:22:45 10° NNE 06:27:47 57° E 06:32:46 10° S visible
28 Sep 5.1 05:46:15 10° NNE 05:50:41 29° E 05:55:06 10° SSE visible
29 Sep 6.0 05:10:29 10° NE 05:13:24 15° E 05:16:20 10° ESE visible
30 Sep 4.2 06:11:18 10° NNE 06:16:13 47° E 06:21:06 10° S visible
